• In United Kingdom
  • List of Countries
  • For 7 days
  • Water Temperature
  • Satellite Maps
  • Weather Map
  • Weather Widgets
  • user-avatar
    Login

    Hourly Weather Yulara

    Today, 18 January, Thursday

    Time Temperature Precipitation Wind Pressure Humidity
    00:00 +34°C° 0 mm 3 mps 713 mmHg 16%
    01:00 +34°C° 0 mm 3 mps 713 mmHg 18%
    02:00 +33°C° 0 mm 4 mps 713 mmHg 19%
    03:00 +32°C° 0 mm 4 mps 713 mmHg 20%
    04:00 +32°C° 0 mm 4 mps 714 mmHg 26%
    05:00 +30°C° 0 mm 3 mps 714 mmHg 32%
    06:00 +30°C° 0 mm 3 mps 714 mmHg 38%
    07:00 +33°C° 0 mm 4 mps 714 mmHg 36%
    08:00 +34°C° 0 mm 4 mps 715 mmHg 33%
    09:00 +36°C° 0 mm 3 mps 715 mmHg 32%
    10:00 +37°C° 0 mm 3 mps 715 mmHg 28%
    11:00 +39°C° 0 mm 3 mps 715 mmHg 23%
    12:00 +40°C° 0 mm 3 mps 715 mmHg 19%
    13:00 +42°C° 0 mm 4 mps 714 mmHg 18%
    14:00 +42°C° 0 mm 4 mps 714 mmHg 16%
    15:00 +43°C° 0 mm 4 mps 714 mmHg 15%
    16:00 +42°C° 0 mm 4 mps 714 mmHg 15%
    17:00 +42°C° 0 mm 5 mps 714 mmHg 15%
    18:00 +42°C° 0 mm 5 mps 714 mmHg 16%
    19:00 +41°C° 0 mm 5 mps 714 mmHg 18%
    20:00 +40°C° 0 mm 5 mps 714 mmHg 20%
    21:00 +39°C° 0 mm 5 mps 715 mmHg 22%
    22:00 +37°C° 0 mm 4 mps 715 mmHg 23%
    23:00 +36°C° 0 mm 4 mps 715 mmHg 25%

    Tomorrow, 19 January, Friday

    Time Temperature Precipitation Wind Pressure Humidity
    00:00 +35°C° 0 mm 3 mps 715 mmHg 27%
    01:00 +35°C° 0 mm 3 mps 714 mmHg 28%
    02:00 +34°C° 0 mm 3 mps 714 mmHg 30%
    03:00 +32°C° 0 mm 2 mps 714 mmHg 32%
    04:00 +32°C° 0 mm 2 mps 714 mmHg 34%
    05:00 +31°C° 0 mm 1 mps 714 mmHg 37%
    06:00 +30°C° 0 mm 1 mps 714 mmHg 39%
    07:00 +32°C° 0 mm 1 mps 715 mmHg 34%
    08:00 +34°C° 0 mm 1 mps 715 mmHg 30%
    09:00 +37°C° 0 mm 2 mps 716 mmHg 25%
    10:00 +37°C° 0 mm 1 mps 716 mmHg 23%
    11:00 +39°C° 0 mm 1 mps 715 mmHg 20%
    12:00 +40°C° 0 mm 1 mps 715 mmHg 17%
    13:00 +41°C° 0 mm 2 mps 715 mmHg 16%
    14:00 +42°C° 0 mm 3 mps 714 mmHg 15%
    15:00 +43°C° 0 mm 3 mps 714 mmHg 14%
    16:00 +42°C° 0 mm 4 mps 714 mmHg 14%
    17:00 +42°C° 0 mm 5 mps 713 mmHg 15%
    18:00 +42°C° 0 mm 5 mps 713 mmHg 15%
    19:00 +41°C° 0 mm 5 mps 714 mmHg 17%
    20:00 +40°C° 0 mm 4 mps 714 mmHg 18%
    21:00 +38°C° 0 mm 4 mps 714 mmHg 20%
    22:00 +37°C° 0 mm 3 mps 714 mmHg 21%
    23:00 +36°C° 0 mm 3 mps 714 mmHg 22%

    Day after tomorrow, 20 January, Saturday

    Time Temperature Precipitation Wind Pressure Humidity
    00:00 +36°C° 0 mm 2 mps 714 mmHg 24%
    01:00 +35°C° 0 mm 2 mps 714 mmHg 26%
    02:00 +34°C° 0 mm 2 mps 714 mmHg 28%
    03:00 +33°C° 0 mm 1 mps 714 mmHg 30%
    04:00 +32°C° 0 mm 2 mps 714 mmHg 33%
    05:00 +31°C° 0 mm 3 mps 714 mmHg 35%
    06:00 +32°C° 0 mm 4 mps 715 mmHg 38%
    07:00 +33°C° 0 mm 4 mps 715 mmHg 36%
    08:00 +35°C° 0 mm 3 mps 715 mmHg 34%
    09:00 +36°C° 0 mm 3 mps 716 mmHg 32%
    10:00 +38°C° 0 mm 3 mps 715 mmHg 27%
    11:00 +39°C° 0 mm 3 mps 715 mmHg 22%
    12:00 +42°C° 0 mm 3 mps 715 mmHg 17%
    13:00 +42°C° 0 mm 3 mps 714 mmHg 16%
    14:00 +43°C° 0 mm 4 mps 714 mmHg 15%
    15:00 +43°C° 0 mm 4 mps 713 mmHg 13%
    16:00 +43°C° 0 mm 4 mps 713 mmHg 13%
    17:00 +42°C° 0 mm 5 mps 713 mmHg 13%
    18:00 +42°C° 0 mm 5 mps 713 mmHg 14%
    19:00 +41°C° 0 mm 4 mps 713 mmHg 14%
    20:00 +41°C° 0 mm 4 mps 714 mmHg 15%
    21:00 +39°C° 0 mm 3 mps 714 mmHg 16%
    22:00 +38°C° 0 mm 3 mps 714 mmHg 17%
    23:00 +37°C° 0 mm 3 mps 714 mmHg 17%

    21 January, Sunday

    Time Temperature Precipitation Wind Pressure Humidity
    00:00 +37°C° 0 mm 3 mps 714 mmHg 18%
    01:00 +36°C° 0 mm 3 mps 713 mmHg 19%
    02:00 +35°C° 0 mm 3 mps 713 mmHg 20%
    03:00 +34°C° 0 mm 4 mps 712 mmHg 21%
    04:00 +34°C° 0 mm 4 mps 713 mmHg 22%
    05:00 +33°C° 0 mm 4 mps 713 mmHg 24%
    06:00 +33°C° 0 mm 4 mps 713 mmHg 25%
    07:00 +35°C° 0 mm 5 mps 714 mmHg 24%
    08:00 +37°C° 0 mm 5 mps 714 mmHg 22%
    09:00 +39°C° 0 mm 6 mps 715 mmHg 20%
    10:00 +41°C° 0 mm 6 mps 714 mmHg 18%
    11:00 +42°C° 0 mm 6 mps 714 mmHg 15%
    12:00 +45°C° 0 mm 7 mps 714 mmHg 13%
    13:00 +46°C° 0 mm 7 mps 713 mmHg 12%
    14:00 +46°C° 0 mm 8 mps 712 mmHg 10%
    15:00 +48°C° 0 mm 8 mps 712 mmHg 9%
    16:00 +46°C° 0 mm 8 mps 711 mmHg 9%
    17:00 +47°C° 0 mm 9 mps 711 mmHg 9%
    18:00 +45°C° 0 mm 9 mps 711 mmHg 10%
    19:00 +44°C° 0 mm 8 mps 712 mmHg 11%
    20:00 +43°C° 0 mm 7 mps 712 mmHg 12%
    21:00 +40°C° 0 mm 6 mps 713 mmHg 14%
    22:00 +39°C° 0 mm 7 mps 713 mmHg 16%
    23:00 +39°C° 0 mm 8 mps 713 mmHg 18%

    22 January, Monday

    Time Temperature Precipitation Wind Pressure Humidity
    00:00 +38°C° 0 mm 8 mps 713 mmHg 20%
    01:00 +37°C° 0 mm 8 mps 713 mmHg 23%
    02:00 +35°C° 0 mm 8 mps 712 mmHg 26%
    03:00 +34°C° 0 mm 8 mps 712 mmHg 30%
    04:00 +33°C° 0 mm 8 mps 713 mmHg 32%
    05:00 +32°C° 0 mm 8 mps 713 mmHg 34%
    06:00 +31°C° 0 mm 8 mps 714 mmHg 36%
    07:00 +33°C° 0 mm 8 mps 714 mmHg 33%
    08:00 +34°C° 0 mm 8 mps 714 mmHg 30%
    09:00 +35°C° 0 mm 8 mps 714 mmHg 27%
    10:00 +38°C° 0 mm 8 mps 714 mmHg 23%
    11:00 +40°C° 0 mm 8 mps 714 mmHg 20%
    12:00 +43°C° 0 mm 8 mps 713 mmHg 17%
    13:00 +44°C° 0 mm 8 mps 713 mmHg 15%
    14:00 +45°C° 0 mm 8 mps 712 mmHg 13%
    15:00 +46°C° 0 mm 8 mps 711 mmHg 11%
    16:00 +45°C° 0 mm 8 mps 711 mmHg 11%
    17:00 +45°C° 0 mm 8 mps 711 mmHg 12%
    18:00 +44°C° 0 mm 8 mps 711 mmHg 12%
    19:00 +43°C° 0 mm 8 mps 712 mmHg 13%
    20:00 +40°C° 0 mm 8 mps 712 mmHg 15%
    21:00 +39°C° 0 mm 7 mps 713 mmHg 16%
    22:00 +38°C° 0 mm 8 mps 713 mmHg 17%
    23:00 +37°C° 0 mm 8 mps 713 mmHg 18%

    23 January, Tuesday

    Time Temperature Precipitation Wind Pressure Humidity
    00:00 +35°C° 0 mm 9 mps 713 mmHg 18%
    01:00 +34°C° 0 mm 8 mps 712 mmHg 17%
    02:00 +33°C° 0 mm 8 mps 712 mmHg 16%
    03:00 +32°C° 0 mm 7 mps 712 mmHg 15%
    04:00 +30°C° 0 mm 7 mps 712 mmHg 16%
    05:00 +30°C° 0 mm 6 mps 712 mmHg 16%
    06:00 +29°C° 0 mm 5 mps 713 mmHg 16%
    07:00 +32°C° 0 mm 6 mps 713 mmHg 16%
    08:00 +33°C° 0 mm 7 mps 714 mmHg 16%
    09:00 +35°C° 0 mm 7 mps 714 mmHg 16%
    10:00 +38°C° 0 mm 7 mps 714 mmHg 15%
    11:00 +40°C° 0 mm 6 mps 713 mmHg 15%
    12:00 +41°C° 0 mm 6 mps 713 mmHg 14%
    13:00 +42°C° 0 mm 5 mps 712 mmHg 13%
    14:00 +43°C° 0 mm 5 mps 712 mmHg 13%
    15:00 +43°C° 0 mm 5 mps 711 mmHg 12%
    16:00 +43°C° 0 mm 5 mps 711 mmHg 13%
    17:00 +43°C° 0 mm 5 mps 711 mmHg 13%
    18:00 +44°C° 0 mm 6 mps 711 mmHg 13%
    19:00 +41°C° 0 mm 6 mps 711 mmHg 14%
    20:00 +40°C° 0 mm 7 mps 712 mmHg 15%
    21:00 +38°C° 0 mm 7 mps 712 mmHg 16%
    22:00 +36°C° 0 mm 7 mps 712 mmHg 17%
    23:00 +36°C° 0 mm 7 mps 712 mmHg 17%
    Show more